Date,TemperatureHighF,TemperatureAvgF,TemperatureLowF,DewpointHighF,DewpointAvgF,DewpointLowF,HumidityHigh,HumidityAvg,HumidityLow,PressureMaxIn,PressureMinIn,WindSpeedMaxMPH,WindSpeedAvgMPH,GustSpeedMaxMPH,PrecipitationSumIn
2013-1-1,39.3,35.8,25.5,30.3,24.7,12.4,73,64,52,30.04,29.85,10,2,10,0.01
2013-1-2,32.6,27.1,20.3,18.7,14.4,11.1,73,59,47,30.19,30.02,8,1,8,0.00
2013-1-3,33.9,28.3,19.9,20.2,16.9,12.7,75,63,47,30.22,30.07,6,1,6,0.00
2013-1-4,39.1,34.4,30.5,24.9,22.7,20.3,70,62,51,30.10,29.95,10,2,10,0.00
2013-1-5,43.8,35.8,31.1,26.1,22.9,19.7,78,60,45,30.29,30.02,13,1,13,0.00
2013-1-6,47.1,39.2,33.4,32.6,28.7,24.7,90,67,49,30.24,29.98,7,1,7,0.00
2013-1-7,45.2,37.8,29.5,31.2,26.1,21.4,85,64,41,30.41,30.06,9,1,9,0.00
2013-1-8,49.6,38.3,29.1,32.9,29.3,24.0,87,71,51,30.45,30.35,7,1,7,0.00
2013-1-9,47.3,39.5,29.1,38.6,33.2,27.1,93,79,65,30.41,30.14,11,1,11,0.00
2013-1-10,48.6,43.0,35.9,34.1,26.9,24.3,69,53,39,30.56,30.23,11,1,11,0.00
2013-1-11,41.9,38.1,31.9,41.4,33.0,26.3,98,82,66,30.55,30.11,5,0,5,0.32
2013-1-12,46.4,44.0,40.7,45.2,43.4,40.2,99,98,95,30.19,30.08,5,0,5,0.02
2013-1-13,48.5,45.9,43.7,48.1,45.4,43.6,100,98,92,30.17,30.02,4,0,4,0.00
2013-1-14,55.7,49.2,37.3,53.3,42.5,31.0,100,80,52,30.31,29.90,9,1,9,0.08
2013-1-15,38.3,36.5,34.3,34.9,29.4,26.6,94,76,64,30.37,30.23,7,1,7,0.07
2013-1-16,35.2,32.9,31.4,34.1,32.1,29.6,99,97,81,30.25,29.83,5,0,5,0.23
2013-1-17,43.8,38.4,33.6,34.3,29.8,23.4,96,72,58,30.11,29.92,7,1,7,0.22
2013-1-18,33.5,28.0,24.3,23.7,12.1,4.4,70,52,34,30.49,30.03,9,1,9,0.01
2013-1-19,50.6,39.7,28.1,30.2,24.8,14.0,73,56,40,30.41,29.93,10,2,10,0.02
2013-1-20,53.7,42.3,29.3,31.8,24.3,10.1,77,51,23,30.05,29.70,15,2,15,0.00
2013-1-21,30.9,28.3,24.1,19.1,13.5,8.4,72,54,44,30.11,29.85,6,1,6,0.00
2013-1-22,26.6,19.7,12.9,19.0,2.3,-6.9,73,47,29,30.23,29.84,12,2,12,0.00
2013-1-23,19.7,14.4,10.3,3.6,-1.9,-6.0,67,48,33,30.28,30.18,10,1,10,0.00
2013-1-24,24.0,16.3,10.1,5.6,1.6,-2.4,80,54,33,30.42,30.16,16,2,16,0.00
2013-1-25,23.5,17.5,12.7,17.2,6.9,-0.7,90,64,43,30.44,30.09,6,1,6,0.00
2013-1-26,28.1,20.0,12.8,13.7,9.4,6.2,90,65,41,30.40,30.07,12,1,12,0.02
2013-1-27,34.6,25.8,17.1,14.9,11.4,8.2,77,56,36,30.54,30.39,10,1,10,0.00
2013-1-28,34.3,30.5,24.2,33.5,25.9,14.9,97,84,63,30.51,30.02,10,1,10,0.14
2013-1-29,49.8,39.9,34.3,43.1,37.4,33.5,98,91,73,30.19,30.01,7,0,7,0.13
2013-1-30,58.6,48.0,38.3,57.2,47.0,37.9,100,96,87,30.10,29.36,13,1,13,0.08
2013-1-31,60.4,45.1,29.5,59.3,31.4,10.2,99,61,36,29.79,29.04,21,4,21,0.58
2013-2-1,31.9,27.7,23.5,16.2,12.9,6.9,70,54,36,30.25,29.80,12,2,12,0.00
2013-2-2,29.2,24.1,18.7,21.1,11.1,5.7,90,59,37,30.32,30.08,12,2,12,0.00
2013-2-3,30.6,25.6,20.8,21.6,19.8,17.3,94,79,62,30.08,29.81,4,0,4,0.01
2013-2-4,31.5,27.0,22.3,21.9,12.2,8.7,81,54,40,29.99,29.82,10,2,10,0.01
2013-2-5,30.1,28.4,25.5,28.0,23.9,14.2,93,83,56,30.00,29.91,8,1,8,0.00
2013-2-6,39.2,32.6,27.2,28.2,21.2,3.9,97,66,34,30.37,29.94,9,1,9,0.01
2013-2-7,31.5,27.7,22.9,24.5,11.5,4.1,75,51,35,30.54,30.35,7,1,7,0.00
2013-2-8,33.6,31.6,26.5,32.1,29.2,24.6,98,91,75,30.35,29.66,19,2,19,0.06
2013-2-9,32.2,27.1,19.9,27.2,18.4,8.0,98,72,44,30.36,29.77,15,2,15,0.14
2013-2-10,35.8,25.0,14.5,24.0,14.1,8.0,82,64,41,30.51,30.34,4,0,4,0.33
2013-2-11,40.7,35.5,28.6,40.4,33.9,23.3,100,94,75,30.35,29.68,2,0,2,0.54
2013-2-12,45.2,40.4,33.5,39.0,28.8,25.8,100,64,49,29.99,29.73,9,2,9,0.05
2013-2-13,44.2,35.8,26.3,32.1,26.5,23.4,96,70,48,29.97,29.70,6,0,6,0.00
2013-2-14,46.1,37.8,30.4,32.7,30.0,25.0,97,76,44,30.01,29.73,6,0,6,0.02
2013-2-15,54.7,42.6,33.8,38.7,34.0,29.9,89,73,45,30.03,29.92,10,1,10,0.00
2013-2-16,40.0,34.7,30.4,34.8,26.8,16.0,95,74,55,29.99,29.75,9,2,9,0.05
2013-2-17,31.1,26.0,17.0,16.6,6.5,0.7,56,44,31,30.03,29.68,16,3,16,0.00
2013-2-18,35.7,26.2,16.6,14.8,7.2,2.2,58,45,30,30.26,30.03,11,2,11,0.00
2013-2-19,47.5,37.7,27.5,43.2,28.8,14.7,97,71,48,30.22,29.69,10,1,10,0.20
2013-2-20,37.5,30.5,25.0,25.9,15.4,10.4,64,53,43,30.00,29.73,13,2,13,0.00
2013-2-21,34.2,27.6,23.8,15.8,13.5,11.1,68,55,45,30.31,29.99,17,2,17,0.00
2013-2-22,37.4,31.6,23.9,31.0,22.7,14.9,80,70,56,30.43,30.28,8,1,8,0.00
2013-2-23,40.7,36.8,34.0,40.2,35.7,30.7,98,95,80,30.30,29.83,17,1,17,0.11
2013-2-24,47.4,38.3,32.9,39.2,32.2,23.2,99,80,57,29.99,29.76,10,1,10,0.03
2013-2-25,44.2,37.8,28.5,30.4,27.1,23.3,86,66,50,30.25,29.99,9,1,9,0.00
2013-2-26,43.0,37.2,30.5,35.2,31.6,27.0,94,80,70,30.31,29.92,17,2,17,0.12
2013-2-27,46.0,42.1,35.9,44.8,40.0,34.3,98,92,81,29.92,29.51,27,3,27,0.74
2013-2-28,49.2,43.3,38.8,39.5,35.4,31.3,94,75,55,29.64,29.56,7,1,7,0.00
2013-3-1,44.4,38.8,31.5,32.8,30.0,26.2,92,71,53,29.78,29.60,10,1,10,0.00
2013-3-2,39.7,35.4,31.0,28.2,25.8,24.3,87,68,57,29.77,29.69,9,1,9,0.00
2013-3-3,40.5,32.3,28.0,25.3,20.2,17.0,79,61,45,29.76,29.65,11,2,11,0.00
2013-3-4,40.6,33.1,26.7,22.4,20.2,16.2,71,59,46,29.90,29.76,14,2,14,0.00
2013-3-5,48.3,38.7,30.3,28.9,25.5,21.3,73,60,44,30.02,29.90,10,1,10,0.00
2013-3-6,42.7,39.8,37.8,35.6,32.3,28.6,87,75,63,29.98,29.86,29,4,29,0.01
2013-3-7,38.5,35.6,32.3,33.5,30.5,27.0,97,82,67,30.08,29.92,17,2,17,0.07
2013-3-8,41.2,34.9,30.9,34.5,31.6,28.2,98,88,65,30.19,30.00,13,1,13,0.37
2013-3-9,54.9,43.5,34.3,28.9,24.0,16.0,69,49,23,30.32,30.18,11,2,11,0.06
2013-3-10,50.8,39.6,30.0,38.1,32.9,24.3,96,78,59,30.39,30.30,10,1,10,0.00
2013-3-11,54.1,46.6,38.3,48.3,42.2,35.1,92,85,70,30.32,30.09,12,1,12,0.00
2013-3-12,54.6,51.3,43.0,54.3,48.7,37.8,99,91,77,30.09,29.66,20,2,20,0.71
2013-3-13,50.5,42.7,35.5,37.9,30.9,22.6,90,66,35,29.88,29.78,10,1,10,0.00
2013-3-14,40.9,34.4,28.7,29.1,13.7,5.9,69,44,24,29.96,29.84,16,3,16,0.00
2013-3-15,45.9,37.2,29.0,31.4,20.4,9.1,64,51,37,29.97,29.71,11,2,11,0.00
2013-3-16,40.9,34.7,31.7,31.0,26.4,20.6,94,73,54,29.91,29.78,6,0,6,0.03
2013-3-17,38.2,32.9,28.0,30.5,19.8,13.5,92,61,40,30.30,29.91,10,1,10,0.01
2013-3-18,34.7,30.1,24.8,31.8,19.1,10.2,97,65,47,30.41,30.02,15,2,15,0.00
2013-3-19,42.4,36.7,32.8,36.2,33.9,29.6,98,90,76,30.03,29.70,18,2,18,0.64
2013-3-20,44.7,37.7,31.2,29.6,21.3,16.7,77,53,34,29.88,29.78,14,2,14,0.03
2013-3-21,39.4,34.4,30.7,28.1,17.9,11.6,85,52,34,29.84,29.62,8,1,8,0.00
2013-3-22,40.7,34.6,28.3,24.2,18.7,14.1,68,52,41,29.88,29.72,8,2,9,0.00
2013-3-23,46.1,38.6,32.3,24.3,21.0,19.1,63,50,36,29.93,29.81,10,2,12,0.00
2013-3-24,46.7,39.1,30.5,28.8,22.9,20.3,67,53,39,29.94,29.70,9,1,9,0.00
2013-3-25,41.4,38.6,37.3,35.7,30.0,25.3,93,72,53,29.71,29.47,21,1,21,0.07
2013-3-26,51.2,41.9,32.7,31.6,29.1,25.2,89,63,37,29.85,29.58,10,1,10,0.01
2013-3-27,52.1,42.5,32.5,33.8,27.0,21.3,73,56,31,29.97,29.85,11,1,11,0.00
2013-3-28,49.6,43.1,34.1,37.2,31.2,28.8,82,64,49,30.10,29.95,9,1,9,0.01
2013-3-29,54.9,46.1,35.5,31.8,29.7,26.3,80,54,35,30.14,30.04,13,1,13,0.00
2013-3-30,58.8,46.8,33.5,32.5,27.0,18.7,85,51,22,30.16,30.05,9,1,9,0.00
2013-3-31,54.9,45.1,33.5,44.6,35.3,28.5,97,70,39,30.12,29.67,14,1,14,0.11
2013-4-1,61.8,47.8,37.3,46.7,37.8,12.6,99,72,33,29.90,29.60,13,2,13,0.01
2013-4-2,43.7,37.5,31.7,18.3,13.9,10.1,55,39,27,30.09,29.90,14,2,14,0.00
2013-4-3,46.3,38.4,32.2,17.0,13.2,10.0,49,36,25,30.30,30.08,12,2,12,0.00
2013-4-4,53.7,41.5,30.1,30.7,21.9,14.7,62,46,30,30.39,30.08,12,2,12,0.00
2013-4-5,63.3,49.0,40.4,31.9,25.1,16.9,68,43,20,30.08,29.71,13,2,13,0.00
2013-4-6,52.7,42.7,34.4,30.9,17.4,5.4,67,39,15,30.30,29.99,11,2,11,0.00
2013-4-7,56.1,47.7,38.3,45.2,36.2,27.6,77,65,43,30.30,29.97,15,2,15,0.00
2013-4-8,74.8,58.7,45.2,48.1,43.8,36.6,91,62,26,30.07,29.97,13,1,13,0.00
2013-4-9,82.0,67.5,51.0,54.4,44.5,33.1,90,51,18,29.99,29.87,14,1,14,0.00
2013-4-10,74.6,63.5,53.7,56.9,51.3,41.3,97,67,37,29.98,29.78,10,1,10,0.32
2013-4-11,62.4,55.3,46.9,58.1,49.7,40.1,99,82,62,30.04,29.76,14,2,14,0.01
2013-4-12,46.9,42.7,40.3,41.4,39.5,37.0,96,89,74,30.03,29.71,22,3,22,0.38
2013-4-13,57.7,48.4,39.3,41.9,37.5,33.5,97,69,43,29.96,29.74,9,1,9,0.04
2013-4-14,55.9,51.8,46.7,42.7,33.1,27.0,79,50,34,30.22,29.95,12,2,12,0.00
2013-4-15,58.2,49.5,41.8,39.3,31.4,27.6,72,51,38,30.37,30.22,13,1,13,0.00
2013-4-16,65.0,56.3,47.6,54.8,48.5,39.0,83,75,66,30.36,30.10,15,2,15,0.00
2013-4-17,68.4,61.8,53.7,56.7,45.9,36.4,90,59,33,30.29,30.10,10,1,10,0.00
2013-4-18,60.2,54.2,48.0,54.8,45.1,37.1,95,73,43,30.34,30.09,13,1,13,0.01
2013-4-19,72.8,64.4,55.9,64.0,60.0,54.8,98,86,70,30.09,29.63,14,2,14,0.08
2013-4-20,63.2,53.3,45.6,61.9,35.9,24.8,96,56,29,30.29,29.65,14,2,14,0.10
2013-4-21,52.7,44.9,35.8,32.9,23.5,18.1,65,44,27,30.61,30.30,11,1,11,0.00
2013-4-22,54.1,46.5,37.8,38.0,33.7,29.4,82,62,42,30.66,30.49,15,2,15,0.00
2013-4-23,51.4,45.0,39.6,42.5,37.6,31.8,91,75,69,30.49,30.11,16,2,16,0.00
2013-4-24,70.5,53.5,38.5,52.8,45.5,36.9,95,76,51,30.11,29.81,14,1,14,0.00
2013-4-25,64.4,56.2,45.8,53.4,32.7,19.9,85,45,18,30.25,29.84,17,2,17,0.00
2013-4-26,65.2,55.0,41.5,39.7,32.9,19.2,88,49,18,30.40,30.25,8,1,10,0.00
2013-4-27,68.3,56.5,40.9,34.4,31.3,24.8,73,41,21,30.42,30.26,8,1,8,0.00
2013-4-28,70.7,57.7,44.8,43.5,35.7,28.9,73,45,26,30.30,30.18,12,1,12,0.00
2013-4-29,56.6,55.0,52.9,50.0,47.7,43.4,87,77,62,30.23,30.18,9,1,9,0.06
2013-4-30,66.7,57.7,50.8,48.5,38.6,23.3,87,54,22,30.33,30.20,11,1,11,0.01
2013-5-1,67.7,55.5,40.4,46.5,38.7,29.5,88,56,29,30.48,30.32,19,1,19,0.00
2013-5-2,73.1,58.6,43.3,48.9,42.9,37.0,97,61,28,30.46,30.31,8,1,8,0.00
2013-5-3,65.4,56.4,47.9,45.3,40.7,34.2,86,57,33,30.45,30.35,10,1,10,0.00
2013-5-4,68.8,54.7,43.7,47.3,43.7,40.1,96,69,40,30.37,30.23,10,1,10,0.00
2013-5-5,63.2,51.9,41.5,45.6,41.1,37.5,92,69,40,30.29,30.21,10,1,10,0.00
2013-5-6,69.5,55.8,43.6,55.7,48.3,40.6,93,77,55,30.27,30.14,7,1,7,0.00
2013-5-7,73.4,61.5,47.9,59.5,54.1,46.8,98,78,60,30.16,30.07,9,1,9,0.00
2013-5-8,63.4,59.7,53.5,62.3,57.9,51.8,100,94,83,30.09,29.96,10,0,10,1.82
2013-5-9,66.6,58.8,53.3,61.2,56.4,51.8,100,92,69,30.00,29.88,5,0,5,0.72
2013-5-10,80.3,66.3,52.8,60.3,56.3,52.3,100,74,43,29.99,29.87,7,1,7,0.00
2013-5-11,70.3,64.3,61.0,65.5,62.4,57.6,99,94,75,29.89,29.68,9,0,9,0.54
2013-5-12,68.4,60.9,51.2,60.9,43.0,25.8,99,57,26,29.92,29.64,14,2,14,0.04
2013-5-13,55.6,49.9,44.1,34.5,30.2,24.4,68,48,32,30.10,29.92,10,1,10,0.00
2013-5-14,60.6,50.1,37.0,35.2,30.6,21.1,90,52,23,30.12,30.01,9,1,9,0.00
2013-5-15,69.1,59.0,44.8,59.1,47.4,32.9,76,66,47,30.06,29.66,8,1,8,0.00
2013-5-16,81.3,69.1,56.1,58.7,54.2,46.1,92,62,36,29.82,29.69,7,1,7,0.00
2013-5-17,72.3,64.2,56.1,47.6,43.3,37.8,65,47,32,30.19,29.82,7,1,7,0.00
2013-5-18,66.5,59.2,50.1,55.1,50.0,45.3,93,73,49,30.29,30.18,5,0,5,0.00
2013-5-19,59.1,57.4,55.5,57.7,55.8,50.5,100,95,75,30.31,30.16,8,0,8,0.21
2013-5-20,80.0,68.1,57.4,67.7,63.0,57.2,100,86,63,30.17,29.94,6,0,6,0.01
2013-5-21,87.5,76.6,64.8,71.4,67.9,64.1,99,77,54,29.96,29.81,8,1,10,0.00
2013-5-22,79.4,70.6,58.8,71.9,65.8,57.1,96,85,76,29.92,29.81,8,0,8,0.00
2013-5-23,78.4,71.5,65.6,71.5,68.4,65.1,99,90,73,29.87,29.73,8,1,9,1.10
2013-5-24,65.8,55.2,44.7,65.7,54.0,42.7,100,96,85,29.94,29.65,7,0,7,0.33
2013-5-25,52.9,48.3,43.4,47.4,43.8,39.8,98,85,66,30.00,29.88,15,1,15,0.34
2013-5-26,65.8,56.2,46.6,42.1,39.0,34.5,77,55,33,30.19,29.94,15,2,15,0.00
2013-5-27,75.1,61.5,43.5,45.3,40.0,34.6,86,49,26,30.24,30.09,8,1,8,0.00
2013-5-28,69.2,58.3,51.1,58.5,52.3,44.1,100,82,46,30.21,30.11,7,0,7,0.39
2013-5-29,86.0,70.5,57.9,69.9,63.6,57.9,100,82,54,30.13,29.98,6,0,6,0.00
2013-5-30,92.4,82.2,68.6,69.8,66.1,61.4,93,61,37,30.11,30.03,6,1,6,0.00
2013-5-31,93.1,82.8,69.3,71.5,66.3,60.5,91,60,39,30.11,29.96,8,0,8,0.00
2013-6-1,91.3,81.8,70.9,71.2,67.8,63.2,88,64,44,30.00,29.86,8,1,8,0.00
2013-6-2,88.8,80.3,72.1,72.5,69.2,65.5,94,71,49,29.89,29.74,10,1,10,0.11
2013-6-3,79.7,71.0,66.8,69.6,66.8,50.2,100,88,53,29.87,29.78,8,0,8,0.66
2013-6-4,74.5,66.0,56.2,51.6,44.9,41.2,67,48,31,30.10,29.87,8,1,8,0.00
2013-6-5,76.0,64.4,50.9,52.6,47.2,41.7,83,55,37,30.20,30.10,8,0,8,0.00
2013-6-6,71.9,63.3,54.8,59.7,55.6,48.9,97,78,46,30.13,30.01,10,1,10,0.14
2013-6-7,61.3,60.2,59.0,61.3,59.9,58.7,100,99,96,30.01,29.62,11,1,11,1.32
2013-6-8,76.3,66.6,56.1,65.0,61.3,56.1,100,84,64,30.03,29.58,7,0,7,0.42
2013-6-9,80.8,71.1,58.7,62.6,59.9,57.0,99,71,46,30.16,30.03,5,0,5,0.03
2013-6-10,70.0,65.4,61.7,67.2,63.5,61.4,100,94,84,30.14,29.81,10,0,10,0.01
2013-6-11,79.9,71.4,62.5,69.9,65.3,60.5,100,83,62,29.81,29.59,10,1,10,0.02
2013-6-12,76.0,69.9,63.0,60.6,55.8,53.3,79,62,48,29.83,29.69,9,1,9,0.02
2013-6-13,64.8,61.0,55.9,61.7,58.7,55.3,98,92,79,29.83,29.46,11,0,11,0.02
2013-6-14,72.6,61.2,52.4,58.3,54.7,51.8,99,81,55,29.88,29.51,8,0,8,0.02
2013-6-15,80.0,69.4,56.5,60.0,54.5,49.0,95,63,36,29.99,29.87,5,0,5,0.03
2013-6-16,81.4,71.1,58.3,66.1,59.2,53.0,90,68,41,29.97,29.75,9,1,9,0.02
2013-6-17,86.2,76.6,66.7,68.5,64.9,60.4,94,70,44,29.89,29.81,6,1,7,0.03
2013-6-18,85.3,71.0,63.6,69.8,65.5,62.4,98,84,53,29.88,29.80,5,0,5,0.02
2013-6-19,75.0,67.1,57.1,62.9,54.5,45.6,99,68,37,30.15,29.87,8,0,8,0.02
2013-6-20,80.3,69.7,57.1,59.1,56.4,53.1,92,64,44,30.25,30.15,7,0,7,0.02
2013-6-21,83.1,72.9,60.0,60.9,55.9,49.4,79,56,44,30.29,30.21,9,1,9,0.02
2013-6-22,84.4,73.3,60.8,64.0,58.5,52.0,80,61,45,30.24,30.11,7,1,7,0.02
2013-6-23,88.3,77.9,68.0,72.6,67.5,60.5,86,71,52,30.17,30.03,10,1,10,0.02
2013-6-24,94.3,81.9,73.0,74.0,69.7,62.9,95,70,36,30.05,29.91,10,1,10,0.01
2013-6-25,92.5,81.4,71.7,72.4,68.7,66.0,85,67,46,29.98,29.78,7,1,7,0.01
2013-6-26,85.2,80.5,74.5,71.2,68.7,66.7,82,68,56,29.83,29.76,10,0,10,0.01
2013-6-27,86.7,78.0,71.3,73.9,71.4,69.8,97,81,59,29.81,29.53,8,1,8,0.01
2013-6-28,86.5,78.7,72.7,72.9,69.9,65.6,97,76,51,29.54,29.44,9,1,9,0.01
2013-6-29,85.0,77.2,69.7,72.9,68.7,66.3,93,76,56,29.68,29.47,6,0,6,0.01
2013-6-30,84.5,76.9,71.3,75.0,72.7,70.3,98,87,69,29.89,29.68,3,0,6,0.01
2013-7-1,77.2,74.6,72.4,75.4,72.9,71.1,99,94,88,30.03,29.88,7,0,7,0.00
2013-7-2,84.2,77.7,73.2,76.7,73.3,71.7,97,87,72,30.16,30.03,8,1,8,0.01
2013-7-3,85.0,77.5,73.0,78.4,73.3,69.9,96,87,70,30.23,30.15,7,0,7,0.11
2013-7-4,89.3,82.3,75.0,76.2,74.2,72.0,98,78,59,30.23,30.12,8,1,8,0.00
2013-7-5,92.4,84.1,74.6,75.4,72.9,69.3,94,71,50,30.19,30.06,6,1,6,0.00
2013-7-6,92.8,86.0,77.1,76.2,73.1,70.4,88,67,49,30.11,29.99,7,1,7,0.00
2013-7-7,95.0,86.1,75.8,76.1,73.5,68.8,88,68,47,30.04,29.90,7,1,7,0.01
2013-7-8,89.2,81.2,72.2,72.3,69.0,67.4,87,68,51,30.02,29.93,6,1,6,0.00
2013-7-9,89.5,81.6,71.8,71.9,69.4,67.2,87,68,50,30.05,29.96,5,0,5,0.00
2013-7-10,87.6,81.9,75.6,75.7,72.5,69.3,89,74,57,30.00,29.77,7,1,7,0.00
2013-7-11,84.7,79.9,73.4,75.4,70.7,65.1,94,74,55,29.91,29.77,5,0,5,0.02
2013-7-12,77.5,73.1,67.4,70.3,66.8,63.5,96,81,71,30.09,29.90,11,1,11,0.09
2013-7-13,80.7,73.0,66.4,75.6,70.9,65.4,100,93,83,30.26,30.09,8,1,8,0.04
2013-7-14,91.5,82.8,73.7,76.8,73.4,70.9,99,76,53,30.32,30.21,5,0,5,0.01
2013-7-15,94.0,86.1,77.7,76.0,73.6,69.8,86,68,48,30.22,30.10,5,0,5,0.00
2013-7-16,93.8,84.6,74.5,75.1,69.8,65.6,89,64,41,30.19,30.10,8,0,8,0.00
2013-7-17,96.7,85.8,74.4,75.4,71.7,66.4,90,65,41,30.17,30.03,5,0,5,0.00
2013-7-18,97.0,88.7,78.1,77.5,73.0,68.5,85,62,40,30.05,29.92,5,0,5,0.00
2013-7-19,97.2,90.2,81.4,77.7,75.3,72.3,79,63,46,29.94,29.76,9,1,9,0.00
2013-7-20,92.6,86.3,80.1,77.3,72.2,64.4,76,64,44,29.81,29.69,8,1,8,0.00
2013-7-21,87.1,81.0,76.0,73.7,67.1,61.2,89,65,45,29.94,29.81,7,0,7,0.00
2013-7-22,83.6,77.0,73.7,76.3,72.9,69.3,99,88,73,29.94,29.78,8,0,9,0.21
2013-7-23,87.7,78.5,72.6,75.3,73.5,70.2,100,86,60,29.78,29.53,6,0,6,0.44
2013-7-24,81.0,75.4,68.1,73.6,66.2,54.5,100,75,53,29.92,29.59,7,0,7,0.00
2013-7-25,67.9,65.2,62.8,61.0,56.0,50.6,87,72,61,30.04,29.92,4,0,7,0.01
2013-7-26,82.3,72.9,64.0,65.6,61.3,58.9,88,69,48,30.02,29.97,5,0,5,0.00
2013-7-27,84.3,75.1,65.7,67.1,64.9,61.1,95,72,52,30.04,29.94,8,0,8,0.00
2013-7-28,78.9,72.7,66.5,71.7,67.8,64.7,99,85,68,29.97,29.91,8,0,8,0.25
2013-7-29,85.5,76.1,68.1,71.5,64.3,51.3,100,71,34,30.08,29.94,7,0,7,0.01
2013-7-30,80.5,72.0,60.4,60.6,58.1,55.4,89,63,44,30.15,30.08,6,0,6,0.00
2013-7-31,82.2,72.5,60.4,64.3,61.2,58.4,95,70,47,30.15,30.02,5,0,5,0.00
2013-8-1,75.8,70.1,66.9,69.4,66.3,63.1,99,88,67,30.03,29.82,5,0,5,0.44
2013-8-2,83.7,75.0,64.9,69.3,64.3,58.7,100,73,44,29.90,29.78,7,0,7,0.01
2013-8-3,78.0,69.8,67.0,68.7,63.2,58.7,92,80,59,29.90,29.85,6,0,6,0.06